Flag for Paraguay Weather past 2 weeks in Asuncion, Paraguay

Now
68 °F

Thunderstorms. Broken clouds.


Feels Like: 68 °F
Forecast: 66 / 80 °F
Wind: 6 mph from South

Location: Asuncion / Aeropuerto

Current Time: Sep 19, 2014 at 6:01:10 AM

Latest Report: Sep 19, 2014 at 5:00 AM


Visibility: N/A

Pressure: 29.77 "Hg

Humidity: 100%

Dew point: 68 °F

Location of AsuncionLocation

Historic Weather in Asuncion — Graph

°F

Asuncion temperature yesterday

Maximum temperature yesterday: 75 °F (at 12:00 PM)
Minimum temperature yesterday: 68 °F (at 7:30 AM)
Average temperature yesterday: 71 °F

Past Weeks' High & Low Weather Summary

 TemperatureHumidityPressure
High95 °F (Sep 9, 2:00 PM)100% (Sep 7, 5:00 AM)30.15 "Hg (Sep 7, 5:00 AM)
Low36 °F (Sep 7, 7:30 AM)32% (Sep 13, 3:00 PM)29.59 "Hg (Sep 9, 4:00 PM)
Average74 °F71%29.89 "Hg
* Reported Sep 4 5:00 AM — Sep 19 5:00 AM, Asuncion, Weather by CustomWeather, © 2014

Note: Actual official high and low records may vary slightly from our data, if they occured in-between our weather recording intervals... More about our weather records

Advertising

Asuncion weather history for previous 24 hours

 ConditionsComfort  
Time TempWeatherWind HumidityBarometerVisibility
5:00 AM
Sep 19
68 °FThunderstorms. Broken clouds.6 mph100%29.77 "HgN/A
4:00 AM68 °FThunderstorms. Mostly cloudy.2 mph100%29.74 "HgN/A
3:00 AM68 °FThunderstorms. Partly cloudy.5 mph94%29.74 "HgN/A
2:00 AM68 °FThunderstorms. Mostly cloudy.10 mph94%29.77 "Hg4 mi
1:00 AM70 °FThunderstorms. Mostly cloudy.10 mph83%29.80 "HgN/A
12:00 AM68 °FThunderstorms. Mostly cloudy.9 mph88%29.77 "HgN/A
11:00 PM
Sep 18
70 °FThunderstorms. Mostly cloudy.7 mph83%29.80 "HgN/A
10:00 PM70 °FThunderstorms. Mostly cloudy.7 mph83%29.83 "HgN/A
9:00 PM72 °FThunderstorms. Partly cloudy.6 mph78%29.83 "HgN/A
8:00 PM72 °FThunderstorms. Passing clouds.12 mph78%29.74 "HgN/A
7:00 PM72 °FThunderstorms. Passing clouds.14 mph78%29.77 "HgN/A
6:00 PM72 °FPassing clouds.12 mph78%29.77 "HgN/A
5:00 PM72 °FThunderstorms. Passing clouds.13 mph78%29.77 "HgN/A
4:00 PM73 °FPartly sunny.14 mph78%29.77 "HgN/A
3:00 PM75 °FBroken clouds.15 mph78%29.77 "HgN/A
2:00 PM75 °FPartly sunny.15 mph78%29.80 "HgN/A
1:00 PM75 °FBroken clouds.10 mph78%29.80 "HgN/A
12:00 PM75 °FBroken clouds.14 mph78%29.86 "HgN/A
11:00 AM72 °FPartly sunny.9 mph88%29.86 "HgN/A
10:00 AM70 °FMostly cloudy.13 mph88%29.86 "HgN/A
9:00 AM70 °FThunderstorms. Partly sunny.12 mph88%29.89 "HgN/A
8:30 AM68 °FThunderstorms. Mostly cloudy.12 mph94%29.89 "HgN/A
8:00 AM68 °FThunderstorms. Mostly cloudy.15 mph88%29.86 "Hg4 mi
7:30 AM68 °FThunderstorms. Mostly cloudy.15 mph100%29.86 "HgN/A
7:00 AM72 °FThunderstorms. Mostly cloudy.9 mph83%29.83 "HgN/A
6:00 AM70 °FThunderstorms. Mostly cloudy.No wind83%29.77 "HgN/A
Weather by CustomWeather, © 2014

See weather overviewHow to use our weather pages